sat.trackr.live / text

‹ back to catalog

AAC-AIS-SAT1

NORAD 55107 · 2023-001DC

PAYLOAD ACTIVE UNKNOWN

§ Identity

Operator
Country
UK
Launch date
2023-01-03
Launch site
AFETR
Launch vehicle
Mass (kg)
RCS (m²)

External: N2YO · Heavens-Above · Gunter

§ Orbital elements

Epoch: 2026-09-21T23:35:33.124128Z

Period
96.46 min
Inclination
97.9134°
Eccentricity
0.0008223
Mean motion
14.92812717 rev/d
Perigee alt
583.4 km
Apogee alt
594.9 km
Semi-major
6,967.3 km
B*
2.4527e-4
RAAN
342.2708°
Arg perigee
326.0645°
Mean anomaly
34.0047°
Rev number
19,272

§ Raw data

AAC-AIS-SAT11 55107U 23001DC  26264.98302227  .00002480  00000+0  24527-3 0  99932 55107  97.9134 342.2708 0008223 326.0645  34.0047 14.92812717192721

JSON: /api/v1/satellites/55107 · /tle

For live sub-satellite position, see the globe view (requires WebGL).

§ Visibility from observer

Set your observer location to see the next 7 days of passes ≥ 10°. The values pass through the URL so the page stays shareable.

No JS? Fill the form by hand. The geolocation button needs JavaScript.

§ Radio — SatNOGS DB

ModeDescriptionDownlinkUplink
FM VDES1 157.262 MHz
FM VDES2 161.863 MHz

2 transmitters · refreshed weekly from db.satnogs.org